Location: Kalberh�ni
(46.4610°N, 7.2453°E)
Time: 21:57:10
(UTC+00:00)

USA 229 - Pass Details

Date: 01 November 2021
Orbit: 946 x 1266 km, 63.4° (Epoch: 25 November)

Event Time Altitude Azimuth Distance (km) Brightness Sun altitude
Rises 16:58:01 0° 227° (SW) 3,639 7.7 -7.8°
Reaches altitude 10° 17:00:32 10° 230° (SW) 2,719 7.0 -8.2°
Maximum altitude 17:06:52 68° 313° (NW) 1,097 3.9 -9.3°
Drops below altitude 10° 17:13:44 10° 37° (NE) 2,928 5.6 -10.4°
Enters shadow 17:15:37 - 39° (NE) 3,609 6.0 -10.7°
